When you browse on this site, cookies collect data to enhance your experience and personalize the content and advertising you see.
Visit our Privacy Policy to learn more. By continuing to use the site, you agree to this use of cookies and data.
  • In Portugal
  • List of Countries
  • For 7 days
  • Water Temperature
  • Weather Map
  • Weather Widgets
  • user-avatar
    Login

    Hourly Weather Banbridge

    Today, 22 September, Sunday

    Time Temperature Precipitation Wind Pressure Humidity
    00:00 +15°C° 0 mm 4 mps 744 mmHg 96%
    01:00 +15°C° 0.7 mm 4 mps 743 mmHg 96%
    02:00 +15°C° 0.7 mm 4 mps 743 mmHg 96%
    03:00 +15°C° 0.7 mm 4 mps 742 mmHg 96%
    04:00 +15°C° 0.4 mm 4 mps 742 mmHg 96%
    05:00 +16°C° 0.4 mm 3 mps 742 mmHg 96%
    06:00 +14°C° 0 mm 4 mps 742 mmHg 97%
    07:00 +16°C° 1.2 mm 3 mps 742 mmHg 97%
    08:00 +16°C° 1.2 mm 3 mps 742 mmHg 97%
    09:00 +16°C° 1.2 mm 3 mps 741 mmHg 96%
    10:00 +16°C° 0.6 mm 3 mps 742 mmHg 95%
    11:00 +17°C° 0.6 mm 3 mps 742 mmHg 94%
    12:00 +17°C° 0.6 mm 3 mps 742 mmHg 93%
    13:00 +17°C° 0.2 mm 3 mps 742 mmHg 92%
    14:00 +17°C° 0.2 mm 3 mps 742 mmHg 90%
    15:00 +17°C° 0.2 mm 3 mps 742 mmHg 89%
    16:00 +16°C° 0.2 mm 2 mps 742 mmHg 91%
    17:00 +16°C° 0.2 mm 2 mps 743 mmHg 92%
    18:00 +15°C° 0.2 mm 1 mps 743 mmHg 94%
    19:00 +15°C° 0.1 mm 1 mps 743 mmHg 95%
    20:00 +14°C° 0.1 mm 2 mps 743 mmHg 95%
    21:00 +14°C° 0.1 mm 2 mps 744 mmHg 96%
    22:00 +14°C° 0.3 mm 2 mps 744 mmHg 96%
    23:00 +12°C° 0.3 mm 3 mps 744 mmHg 96%

    Tomorrow, 23 September, Monday

    Time Temperature Precipitation Wind Pressure Humidity
    00:00 +12°C° 0.3 mm 3 mps 744 mmHg 96%
    01:00 +12°C° 0.3 mm 3 mps 745 mmHg 96%
    02:00 +12°C° 0.3 mm 2 mps 745 mmHg 96%
    03:00 +12°C° 0.3 mm 2 mps 745 mmHg 96%
    04:00 +12°C° 0 mm 2 mps 745 mmHg 96%
    05:00 +10°C° 0 mm 2 mps 745 mmHg 96%
    06:00 +10°C° 0 mm 2 mps 745 mmHg 95%
    07:00 +10°C° 0 mm 2 mps 745 mmHg 93%
    08:00 +12°C° 0 mm 2 mps 745 mmHg 90%
    09:00 +13°C° 0 mm 2 mps 745 mmHg 87%
    10:00 +13°C° 0 mm 3 mps 745 mmHg 84%
    11:00 +14°C° 0 mm 4 mps 745 mmHg 81%
    12:00 +14°C° 0 mm 5 mps 744 mmHg 78%
    13:00 +14°C° 0.8 mm 6 mps 744 mmHg 84%
    14:00 +14°C° 0.8 mm 6 mps 743 mmHg 89%
    15:00 +12°C° 0.8 mm 7 mps 743 mmHg 94%
    16:00 +12°C° 0.8 mm 7 mps 742 mmHg 95%
    17:00 +14°C° 0.8 mm 7 mps 742 mmHg 95%
    18:00 +14°C° 0.8 mm 7 mps 741 mmHg 95%
    19:00 +14°C° 0.2 mm 6 mps 741 mmHg 96%
    20:00 +14°C° 0.2 mm 5 mps 741 mmHg 96%
    21:00 +14°C° 0.2 mm 4 mps 741 mmHg 97%
    22:00 +14°C° 0.2 mm 3 mps 741 mmHg 97%
    23:00 +14°C° 0.2 mm 3 mps 740 mmHg 97%

    Day after tomorrow, 24 September, Tuesday

    Time Temperature Precipitation Wind Pressure Humidity
    00:00 +14°C° 0.2 mm 3 mps 740 mmHg 97%
    01:00 +14°C° 0 mm 3 mps 740 mmHg 97%
    02:00 +15°C° 0 mm 2 mps 740 mmHg 97%
    03:00 +15°C° 0 mm 2 mps 739 mmHg 97%
    04:00 +14°C° 0.1 mm 2 mps 739 mmHg 97%
    05:00 +14°C° 0.1 mm 2 mps 739 mmHg 97%
    06:00 +14°C° 0.1 mm 1 mps 739 mmHg 97%
    07:00 +14°C° 0.2 mm 2 mps 739 mmHg 96%
    08:00 +15°C° 0.2 mm 2 mps 739 mmHg 95%
    09:00 +16°C° 0.2 mm 2 mps 739 mmHg 94%
    10:00 +16°C° 0.1 mm 2 mps 739 mmHg 89%
    11:00 +17°C° 0.1 mm 2 mps 739 mmHg 84%
    12:00 +18°C° 0.1 mm 3 mps 739 mmHg 79%
    13:00 +18°C° 0.1 mm 3 mps 738 mmHg 79%
    14:00 +18°C° 0.1 mm 3 mps 738 mmHg 79%
    15:00 +18°C° 0.1 mm 3 mps 738 mmHg 78%
    16:00 +17°C° 0.1 mm 3 mps 737 mmHg 83%
    17:00 +16°C° 0.1 mm 2 mps 737 mmHg 87%
    18:00 +15°C° 0.1 mm 1 mps 737 mmHg 92%
    19:00 +14°C° 0 mm 1 mps 737 mmHg 92%
    20:00 +13°C° 0 mm 1 mps 737 mmHg 93%
    21:00 +13°C° 0 mm 1 mps 738 mmHg 93%
    22:00 +12°C° 0 mm 1 mps 738 mmHg 94%
    23:00 +12°C° 0 mm 1 mps 738 mmHg 94%

    25 September, Wednesday

    Time Temperature Precipitation Wind Pressure Humidity
    00:00 +12°C° 0 mm 1 mps 738 mmHg 94%
    01:00 +12°C° 0 mm 1 mps 739 mmHg 95%
    02:00 +10°C° 0 mm 2 mps 739 mmHg 95%
    03:00 +10°C° 0 mm 2 mps 739 mmHg 96%
    04:00 +10°C° 0 mm 2 mps 740 mmHg 96%
    05:00 +10°C° 0 mm 2 mps 740 mmHg 96%
    06:00 +10°C° 0 mm 2 mps 740 mmHg 96%
    07:00 +12°C° 0 mm 2 mps 740 mmHg 94%
    08:00 +13°C° 0 mm 2 mps 741 mmHg 92%
    09:00 +13°C° 0 mm 3 mps 741 mmHg 91%
    10:00 +14°C° 0 mm 3 mps 741 mmHg 87%
    11:00 +17°C° 0 mm 3 mps 741 mmHg 83%
    12:00 +18°C° 0 mm 3 mps 742 mmHg 79%
    13:00 +18°C° 0.1 mm 3 mps 741 mmHg 79%
    14:00 +18°C° 0.1 mm 3 mps 741 mmHg 80%
    15:00 +18°C° 0.1 mm 4 mps 741 mmHg 80%
    16:00 +17°C° 0.1 mm 4 mps 741 mmHg 84%
    17:00 +15°C° 0.1 mm 4 mps 740 mmHg 88%
    18:00 +14°C° 0.1 mm 4 mps 740 mmHg 92%
    19:00 +14°C° 1.6 mm 4 mps 739 mmHg 93%
    20:00 +14°C° 1.6 mm 5 mps 739 mmHg 95%
    21:00 +14°C° 1.6 mm 5 mps 738 mmHg 97%
    22:00 +14°C° 0.9 mm 5 mps 738 mmHg 96%
    23:00 +14°C° 0.9 mm 5 mps 738 mmHg 96%

    26 September, Thursday

    Time Temperature Precipitation Wind Pressure Humidity
    00:00 +14°C° 0.9 mm 5 mps 738 mmHg 95%
    01:00 +13°C° 0.1 mm 5 mps 738 mmHg 94%
    02:00 +12°C° 0.1 mm 4 mps 738 mmHg 93%
    03:00 +11°C° 0.1 mm 4 mps 738 mmHg 92%
    04:00 +11°C° 0 mm 4 mps 738 mmHg 93%
    05:00 +10°C° 0 mm 4 mps 738 mmHg 93%
    06:00 +10°C° 0 mm 4 mps 738 mmHg 94%
    07:00 +10°C° 0.2 mm 4 mps 739 mmHg 94%
    08:00 +10°C° 0.2 mm 5 mps 739 mmHg 94%
    09:00 +10°C° 0.2 mm 5 mps 739 mmHg 94%
    10:00 +12°C° 0.2 mm 5 mps 740 mmHg 90%
    11:00 +13°C° 0.2 mm 6 mps 740 mmHg 87%
    12:00 +14°C° 0.2 mm 6 mps 740 mmHg 83%
    13:00 +14°C° 0.2 mm 6 mps 740 mmHg 82%
    14:00 +14°C° 0.2 mm 6 mps 740 mmHg 82%
    15:00 +14°C° 0.2 mm 6 mps 740 mmHg 81%
    16:00 +14°C° 0.1 mm 5 mps 740 mmHg 83%
    17:00 +13°C° 0.1 mm 5 mps 740 mmHg 85%
    18:00 +12°C° 0.1 mm 5 mps 740 mmHg 88%
    19:00 +10°C° 0 mm 5 mps 740 mmHg 88%
    20:00 +10°C° 0 mm 5 mps 740 mmHg 89%
    21:00 +9°C° 0 mm 5 mps 741 mmHg 89%
    22:00 +9°C° 0 mm 5 mps 741 mmHg 90%
    23:00 +9°C° 0 mm 5 mps 741 mmHg 90%

    27 September, Friday

    Time Temperature Precipitation Wind Pressure Humidity
    00:00 +10°C° 0 mm 5 mps 741 mmHg 90%
    01:00 +10°C° 0.1 mm 6 mps 741 mmHg 91%
    02:00 +10°C° 0.1 mm 6 mps 740 mmHg 91%
    03:00 +10°C° 0.1 mm 6 mps 740 mmHg 92%
    04:00 +10°C° 0.1 mm 6 mps 740 mmHg 91%
    05:00 +10°C° 0.1 mm 6 mps 740 mmHg 91%
    06:00 +10°C° 0.1 mm 6 mps 740 mmHg 91%
    07:00 +10°C° 0 mm 6 mps 740 mmHg 91%
    08:00 +10°C° 0 mm 6 mps 740 mmHg 90%
    09:00 +10°C° 0 mm 6 mps 740 mmHg 90%
    10:00 +10°C° 0 mm 7 mps 740 mmHg 89%
    11:00 +10°C° 0 mm 7 mps 740 mmHg 88%
    12:00 +11°C° 0 mm 7 mps 740 mmHg 87%
    13:00 +11°C° 0 mm 7 mps 740 mmHg 86%
    14:00 +11°C° 0 mm 7 mps 739 mmHg 85%
    15:00 +11°C° 0 mm 7 mps 739 mmHg 85%
    16:00 +11°C° 0.2 mm 7 mps 739 mmHg 86%
    17:00 +11°C° 0.2 mm 7 mps 738 mmHg 88%
    18:00 +10°C° 0.2 mm 7 mps 738 mmHg 90%
    19:00 +10°C° 0.5 mm 7 mps 738 mmHg 91%
    20:00 +10°C° 0.5 mm 7 mps 738 mmHg 92%
    21:00 +10°C° 0.5 mm 6 mps 737 mmHg 93%
    22:00 +10°C° 0.1 mm 6 mps 737 mmHg 92%
    23:00 +10°C° 0.1 mm 7 mps 737 mmHg 92%
    Show more